SUNNYSIDE Weather Reports


Display with metric or nautical units.
time (UTC)temp
F
wind
direction
speed
MPH
gust
MPH
rain 1hr
in
rain 24hr
in
rain mn
in
humidity
%
barometer
mb
20260510041012 37 32 3.0 6.0 0.00 0.00 0.00 57 988.7
20260510040509 37 22 3.0 6.0 0.00 0.00 0.00 57 988.6
20260510040009 37 26 2.0 6.0 0.00 0.00 0.00 57 988.6
20260510035507 37 10 1.0 3.0 0.00 0.00 0.00 57 988.7
20260510035010 37 11 0.0 3.0 0.00 0.00 0.00 56 988.5
20260510034506 38 11 1.0 4.0 0.00 0.00 0.00 56 988.5
20260510034005 38 25 1.0 4.0 0.00 0.00 0.00 56 988.3
20260510033504 38 36 1.0 3.0 0.00 0.00 0.00 56 988.2
20260510033005 38 28 2.0 5.0 0.00 0.00 0.00 56 988.1
20260510032503 38 43 2.0 5.0 0.00 0.00 0.00 56 988.1
20260510032006 38 29 2.0 4.0 0.00 0.00 0.00 55 988.0
20260510031503 38 32 1.0 4.0 0.00 0.00 0.00 55 987.9
20260510031002 38 20 1.0 3.0 0.00 0.00 0.00 54 987.9
20260510030501 38 20 1.0 3.0 0.00 0.00 0.00 54 987.8
20260510030002 39 20 0.0 3.0 0.00 0.00 0.00 54 987.7
20260510025600 39 20 1.0 3.0 0.00 0.00 0.00 54 987.6
20260510025059 39 12 1.0 3.0 0.00 0.00 0.00 54 987.4
20260510024600 39 351 2.0 4.0 0.00 0.00 0.00 53 987.3
20260510024058 40 346 2.0 4.0 0.00 0.00 0.00 51 987.2
20260510023556 40 348 2.0 5.0 0.00 0.00 0.00 50 987.0
20260510023055 41 342 2.0 8.0 0.00 0.00 0.00 50 986.9
20260510022558 41 319 3.0 8.0 0.00 0.00 0.00 50 986.8
20260510022053 42 325 4.0 6.0 0.00 0.00 0.00 50 986.8
20260510021602 42 341 3.0 8.0 0.00 0.00 0.00 49 986.5
20260510021052 43 331 5.0 9.0 0.00 0.00 0.00 48 986.6
20260510020552 43 343 4.0 10.0 0.00 0.00 0.00 47 986.4
20260510020052 44 343 6.0 12.0 0.00 0.00 0.00 47 986.4
20260510015550 44 323 5.0 13.0 0.00 0.00 0.00 47 986.4
20260510015049 44 314 9.0 13.0 0.00 0.00 0.00 46 986.2
20260510014553 44 321 9.0 13.0 0.00 0.00 0.00 46 986.2
20260510014049 44 323 8.0 15.0 0.00 0.00 0.00 45 986.0
20260510013552 45 338 10.0 15.0 0.00 0.00 0.00 45 985.9
20260510013053 45 335 7.0 14.0 0.00 0.00 0.00 45 985.9
20260510012548 45 322 8.0 16.0 0.00 0.00 0.00 45 985.9
20260510012046 45 346 11.0 16.0 0.00 0.00 0.00 45 985.7
20260510011546 45 342 7.0 13.0 0.00 0.00 0.00 46 985.6
20260510011045 45 337 7.0 14.0 0.00 0.00 0.00 46 985.6
20260510010545 45 346 8.0 15.0 0.00 0.00 0.00 46 985.6
20260510010047 45 342 9.0 15.0 0.00 0.00 0.00 46 985.5
20260510005545 45 311 8.0 13.0 0.00 0.00 0.00 46 985.5
20260510005043 45 355 8.0 13.0 0.00 0.00 0.00 46 985.5
20260510004544 45 350 6.0 12.0 0.00 0.00 0.00 46 985.5
20260510004044 45 332 8.0 13.0 0.00 0.00 0.00 46 985.4
20260510003543 45 360 7.0 14.0 0.00 0.00 0.00 47 985.4
20260510003057 45 342 8.0 14.0 0.00 0.00 0.00 46 985.4
20260510002543 45 10 8.0 15.0 0.00 0.00 0.00 46 985.4
20260510002041 45 343 9.0 15.0 0.00 0.00 0.00 46 985.3
20260510001541 45 328 7.0 15.0 0.00 0.00 0.00 45 985.3
20260510001041 45 328 7.0 15.0 0.00 0.00 0.00 45 985.3
20260510000541 46 323 9.0 15.0 0.00 0.00 0.00 45 985.3
20260510000041 46 360 8.0 15.0 0.00 0.00 0.00 44 985.2
20260509235539 46 342 8.0 14.0 0.00 0.00 0.00 44 985.1
20260509235039 46 5 9.0 15.0 0.00 0.00 0.00 44 985.1
20260509234540 46 348 6.0 15.0 0.00 0.00 0.00 44 985.1
20260509234040 46 340 9.0 15.0 0.00 0.00 0.00 43 985.0
20260509233539 46 346 8.0 17.0 0.00 0.00 0.00 43 985.0
20260509233038 47 30 10.0 17.0 0.00 0.00 0.00 42 985.0
20260509232538 46 348 9.0 16.0 0.00 0.00 0.00 42 984.9
20260509232037 46 334 11.0 16.0 0.00 0.00 0.00 42 984.9
20260509231537 47 315 10.0 16.0 0.00 0.00 0.00 42 984.8
20260509231036 47 306 9.0 15.0 0.00 0.00 0.00 42 984.8
20260509230536 47 345 10.0 15.0 0.00 0.00 0.00 41 984.7
20260509230036 47 329 9.0 15.0 0.00 0.00 0.00 41 984.6
20260509225535 47 355 8.0 15.0 0.00 0.00 0.00 41 984.6
20260509225034 47 340 8.0 14.0 0.00 0.00 0.00 40 984.5
20260509224534 47 34 5.0 14.0 0.00 0.00 0.00 41 984.6
20260509224034 47 349 5.0 14.0 0.00 0.00 0.00 40 984.4
20260509223534 47 41 5.0 15.0 0.00 0.00 0.00 41 984.4
20260509223034 47 337 10.0 15.0 0.00 0.00 0.00 39 984.5
20260509222533 47 355 7.0 14.0 0.00 0.00 0.00 40 984.5
20260509222035 47 329 9.0 16.0 0.00 0.00 0.00 39 984.4
20260509221533 47 355 7.0 16.0 0.00 0.00 0.00 39 984.5
20260509221033 48 333 9.0 14.0 0.00 0.00 0.00 39 984.5
20260509220533 48 331 7.0 16.0 0.00 0.00 0.00 39 984.4
20260509220040 48 328 6.0 16.0 0.00 0.00 0.00 39 984.3
20260509215532 48 5 8.0 13.0 0.00 0.00 0.00 39 984.4
20260509215031 48 355 6.0 13.0 0.00 0.00 0.00 39 984.3
20260509214532 48 332 8.0 13.0 0.00 0.00 0.00 39 984.3
20260509214032 48 326 8.0 17.0 0.00 0.00 0.00 39 984.1
20260509213530 48 323 8.0 18.0 0.00 0.00 0.00 38 984.2
20260509213030 48 341 8.0 14.0 0.00 0.00 0.00 38 984.2
20260509212530 48 342 8.0 16.0 0.00 0.00 0.00 39 984.0
20260509212030 48 342 10.0 17.0 0.00 0.00 0.00 38 984.1
20260509211529 48 343 11.0 17.0 0.00 0.00 0.00 37 984.2
20260509211029 48 325 10.0 17.0 0.00 0.00 0.00 38 984.1
20260509210530 48 344 10.0 17.0 0.00 0.00 0.00 38 984.0
20260509210029 49 312 11.0 16.0 0.00 0.00 0.00 36 984.2
20260509205528 49 315 10.0 18.0 0.00 0.00 0.00 38 984.0
20260509205027 49 342 11.0 18.0 0.00 0.00 0.00 37 983.9
20260509204527 49 313 9.0 18.0 0.00 0.00 0.00 38 983.9
20260509204028 49 360 12.0 18.0 0.00 0.00 0.00 36 983.9
20260509203530 49 316 10.0 17.0 0.00 0.00 0.00 36 984.0
20260509203035 49 325 11.0 18.0 0.00 0.00 0.00 37 984.0
20260509202529 49 334 12.0 18.0 0.00 0.00 0.00 38 983.9
20260509202027 48 332 12.0 24.0 0.00 0.00 0.00 37 983.9
20260509201527 49 345 14.0 24.0 0.00 0.00 0.00 36 983.9
20260509201026 49 319 11.0 18.0 0.00 0.00 0.00 36 983.9
20260509200527 49 292 10.0 18.0 0.00 0.00 0.00 36 983.9
20260509200036 49 338 12.0 20.0 0.00 0.00 0.00 36 983.9
20260509195526 50 313 13.0 20.0 0.00 0.00 0.00 37 984.1
20260509195026 49 325 9.0 18.0 0.00 0.00 0.00 36 983.9
20260509194541 50 309 12.0 22.0 0.00 0.00 0.00 35 984.0
20260509194029 51 346 15.0 22.0 0.00 0.00 0.00 35 983.9
20260509193525 51 346 11.0 23.0 0.00 0.00 0.00 38 983.9
20260509193025 50 355 11.0 18.0 0.00 0.00 0.00 37 983.8
20260509192524 50 347 10.0 17.0 0.00 0.00 0.00 38 983.9
20260509192024 50 31 10.0 20.0 0.00 0.00 0.00 39 983.9
20260509191524 50 336 12.0 20.0 0.00 0.00 0.00 38 983.8
20260509191026 50 355 11.0 19.0 0.00 0.00 0.00 38 983.9
20260509190523 50 360 9.0 20.0 0.00 0.00 0.00 39 983.8
20260509190023 50 346 11.0 20.0 0.00 0.00 0.00 38 983.8
20260509185522 50 346 12.0 21.0 0.00 0.00 0.00 38 983.7
20260509185023 50 355 11.0 21.0 0.00 0.00 0.00 39 983.8
20260509184622 50 326 13.0 20.0 0.00 0.00 0.00 38 983.8
20260509184026 50 293 11.0 20.0 0.00 0.00 0.00 38 983.8
20260509183521 49 338 11.0 21.0 0.00 0.00 0.00 37 983.7
20260509183021 50 342 12.0 21.0 0.00 0.00 0.00 38 983.8
20260509182524 49 311 12.0 19.0 0.00 0.00 0.00 39 983.6
20260509182023 50 335 13.0 19.0 0.00 0.00 0.00 38 983.8
20260509181520 50 325 12.0 22.0 0.00 0.00 0.00 37 983.7
20260509181020 49 355 13.0 22.0 0.00 0.00 0.00 38 983.7
20260509180523 49 288 14.0 21.0 0.00 0.00 0.00 38 983.8
20260509180019 49 296 14.0 23.0 0.00 0.00 0.00 37 983.7
20260509175518 49 328 14.0 23.0 0.00 0.00 0.00 37 983.7
20260509175018 49 307 10.0 21.0 0.00 0.00 0.00 38 983.6
20260509174536 49 336 14.0 22.0 0.00 0.00 0.00 37 983.6
20260509174021 48 306 11.0 22.0 0.00 0.00 0.00 38 983.7
20260509173516 48 316 12.0 21.0 0.00 0.00 0.00 38 983.7
20260509173016 49 331 15.0 21.0 0.00 0.00 0.00 37 983.7
20260509172519 48 309 12.0 20.0 0.00 0.00 0.00 40 983.7
20260509172016 48 290 12.0 20.0 0.00 0.00 0.00 38 983.7
20260509171513 48 273 13.0 24.0 0.00 0.00 0.00 37 983.7
20260509171011 48 278 14.0 24.0 0.00 0.00 0.00 37 983.6
20260509170511 48 345 13.0 21.0 0.00 0.00 0.00 38 983.6
20260509170010 48 318 13.0 20.0 0.00 0.00 0.00 37 983.5
20260509165508 47 330 12.0 18.0 0.00 0.00 0.00 39 983.5
20260509165007 47 321 13.0 21.0 0.00 0.00 0.00 40 983.6
20260509164506 47 288 12.0 22.0 0.00 0.00 0.00 40 983.6
20260509164005 47 298 12.0 24.0 0.00 0.00 0.00 39 983.5
20260509163503 47 296 11.0 20.0 0.00 0.00 0.00 40 983.4
20260509163005 47 326 13.0 20.0 0.00 0.00 0.00 40 983.5
20260509162504 46 302 12.0 20.0 0.00 0.00 0.00 39 983.5
20260509162100 46 292 12.0 22.0 0.00 0.00 0.00 41 983.4
20260509161603 46 293 13.0 22.0 0.00 0.00 0.00 40 983.5
20260509161057 46 305 12.0 19.0 0.00 0.00 0.00 40 983.6
20260509160557 46 336 14.0 19.0 0.00 0.00 0.00 40 983.4
20260509160055 45 321 11.0 20.0 0.00 0.00 0.00 41 983.4
20260509155552 45 286 13.0 20.0 0.00 0.00 0.00 42 983.3
20260509155051 45 294 12.0 21.0 0.00 0.00 0.00 42 983.4
20260509154550 45 262 12.0 20.0 0.00 0.00 0.00 43 983.3
20260509154050 45 309 13.0 21.0 0.00 0.00 0.00 42 983.3
20260509153550 44 303 12.0 21.0 0.00 0.00 0.00 43 983.2
20260509153053 44 311 11.0 19.0 0.00 0.00 0.00 43 983.2
20260509152546 44 315 11.0 20.0 0.00 0.00 0.00 44 983.2
20260509152045 44 346 13.0 20.0 0.00 0.00 0.00 42 983.4
20260509151545 43 319 12.0 19.0 0.00 0.00 0.00 43 983.4
20260509151043 43 333 12.0 20.0 0.00 0.00 0.00 43 983.3
20260509150546 44 275 12.0 18.0 0.00 0.00 0.00 42 983.3
20260509150044 43 325 10.0 18.0 0.00 0.00 0.00 44 983.2
20260509145541 43 281 11.0 18.0 0.00 0.00 0.00 43 983.2
20260509145039 43 287 12.0 19.0 0.00 0.00 0.00 45 983.1
20260509144540 43 275 12.0 19.0 0.00 0.00 0.00 44 983.2
20260509144038 43 323 13.0 18.0 0.00 0.00 0.00 44 983.1
20260509143538 43 315 12.0 17.0 0.00 0.00 0.00 44 983.2
20260509143039 42 314 11.0 17.0 0.00 0.00 0.00 44 983.1
20260509142536 42 324 9.0 17.0 0.00 0.00 0.00 46 983.2
20260509142039 42 340 11.0 18.0 0.00 0.00 0.00 46 983.1
20260509141536 42 276 11.0 18.0 0.00 0.00 0.00 46 983.1
20260509141035 42 298 11.0 17.0 0.00 0.00 0.00 46 983.2
20260509140534 42 302 10.0 17.0 0.00 0.00 0.00 46 983.0
20260509140040 41 309 11.0 17.0 0.00 0.00 0.00 46 983.1
20260509135535 41 318 9.0 16.0 0.00 0.00 0.00 48 983.1
20260509135033 40 273 9.0 14.0 0.00 0.00 0.00 49 983.1
20260509134534 40 303 9.0 17.0 0.00 0.00 0.00 50 983.1
20260509134032 39 314 10.0 15.0 0.00 0.00 0.00 51 983.1
20260509133532 39 305 9.0 15.0 0.00 0.00 0.00 51 983.1
20260509133032 38 293 9.0 14.0 0.00 0.00 0.00 51 983.1
20260509132532 38 285 7.0 13.0 0.00 0.00 0.00 52 983.1
20260509132031 37 290 6.0 12.0 0.00 0.00 0.00 53 983.0
20260509131532 37 332 7.0 13.0 0.00 0.00 0.00 53 983.0
20260509131030 36 295 7.0 13.0 0.00 0.00 0.00 53 983.0
20260509130530 36 296 6.0 12.0 0.00 0.00 0.00 54 982.9
20260509130030 36 294 6.0 12.0 0.00 0.00 0.00 54 982.8
20260509125531 36 306 8.0 14.0 0.00 0.00 0.00 54 982.8
20260509125028 36 269 9.0 14.0 0.00 0.00 0.00 54 982.8
20260509124528 36 295 8.0 13.0 0.00 0.00 0.00 53 982.7
20260509124027 35 304 8.0 13.0 0.00 0.00 0.00 53 982.6
20260509123527 35 292 5.0 14.0 0.00 0.00 0.00 54 982.5
20260509123027 35 310 7.0 14.0 0.00 0.00 0.00 54 982.6
20260509122526 34 290 7.0 12.0 0.00 0.00 0.00 54 982.4
20260509122026 34 302 7.0 12.0 0.00 0.00 0.00 54 982.5
20260509121525 34 288 6.0 9.0 0.00 0.00 0.00 54 982.3
20260509121024 34 305 5.0 10.0 0.00 0.00 0.00 55 982.2
20260509120623 34 272 6.0 10.0 0.00 0.00 0.00 55 982.1
20260509120028 33 311 6.0 10.0 0.00 0.00 0.00 55 981.9
20260509115521 33 289 5.0 10.0 0.00 0.00 0.00 56 981.9
20260509115020 32 304 5.0 10.0 0.00 0.00 0.00 56 981.8
20260509114523 32 304 5.0 9.0 0.00 0.00 0.00 56 981.7
20260509114019 32 313 6.0 9.0 0.00 0.00 0.00 56 981.6
20260509113518 32 306 6.0 9.0 0.00 0.00 0.00 56 981.6
20260509113017 31 304 5.0 10.0 0.00 0.00 0.00 56 981.5
20260509112517 31 324 5.0 10.0 0.00 0.00 0.00 56 981.3
20260509112015 31 309 5.0 9.0 0.00 0.00 0.00 56 981.2
20260509111514 31 307 5.0 9.0 0.00 0.00 0.00 56 981.1
20260509111014 31 310 5.0 9.0 0.00 0.00 0.00 56 981.2
20260509110513 31 299 5.0 10.0 0.00 0.00 0.00 56 981.2
20260509110013 31 331 5.0 10.0 0.00 0.00 0.00 56 981.0
20260509105512 31 301 5.0 10.0 0.00 0.00 0.00 56 980.9
20260509105009 31 309 5.0 9.0 0.00 0.00 0.00 56 980.9
20260509104510 31 302 5.0 10.0 0.00 0.00 0.00 57 980.8
20260509104008 32 313 5.0 10.0 0.00 0.00 0.00 57 980.7
20260509103507 32 311 4.0 10.0 0.00 0.00 0.00 57 980.7
20260509103005 32 294 4.0 10.0 0.00 0.00 0.00 57 980.5
20260509102505 32 315 5.0 8.0 0.00 0.00 0.00 57 980.5
20260509102005 32 319 6.0 8.0 0.00 0.00 0.00 57 980.5
20260509101503 32 297 4.0 8.0 0.00 0.00 0.00 57 980.4
20260509101002 32 295 4.0 10.0 0.00 0.00 0.00 56 980.4
20260509100502 32 292 4.0 10.0 0.00 0.00 0.00 56 980.3
20260509100005 32 298 5.0 10.0 0.00 0.00 0.00 56 980.3
20260509095503 32 303 6.0 10.0 0.00 0.00 0.00 56 980.2
20260509095100 32 284 6.0 10.0 0.00 0.00 0.00 56 980.2
20260509094559 33 294 7.0 11.0 0.00 0.00 0.00 56 980.2
20260509094058 33 296 5.0 11.0 0.00 0.00 0.00 55 980.1
20260509093558 33 316 6.0 11.0 0.00 0.00 0.00 55 980.2
20260509093057 33 296 5.0 9.0 0.00 0.00 0.00 55 980.0
20260509092559 33 315 5.0 9.0 0.00 0.00 0.00 54 979.9
20260509092058 33 286 4.0 9.0 0.00 0.00 0.00 54 979.8
20260509091554 33 275 4.0 8.0 0.00 0.00 0.00 54 979.9
20260509091056 33 277 3.0 8.0 0.00 0.00 0.00 54 979.7
20260509090553 33 301 4.0 7.0 0.00 0.00 0.00 54 979.6
20260509090056 33 313 4.0 8.0 0.00 0.00 0.00 54 979.5
20260509085552 33 303 5.0 8.0 0.00 0.00 0.00 54 979.4
20260509085053 33 300 4.0 7.0 0.00 0.00 0.00 55 979.4
20260509084551 32 306 3.0 6.0 0.00 0.00 0.00 55 979.2
20260509084050 32 296 2.0 5.0 0.00 0.00 0.00 55 979.2
20260509083552 32 292 2.0 5.0 0.00 0.00 0.00 56 979.1
20260509083057 32 301 2.0 4.0 0.00 0.00 0.00 56 979.0
20260509082548 32 288 2.0 4.0 0.00 0.00 0.00 56 978.9
20260509082048 32 288 2.0 4.0 0.00 0.00 0.00 56 979.0
20260509081547 32 298 2.0 5.0 0.00 0.00 0.00 56 978.9
20260509081047 32 298 2.0 5.0 0.00 0.00 0.00 56 978.9
20260509080545 32 297 2.0 4.0 0.00 0.00 0.00 56 978.8
20260509080046 32 296 2.0 4.0 0.00 0.00 0.00 56 978.8
20260509075545 32 288 2.0 7.0 0.00 0.00 0.00 56 978.7
20260509075044 32 291 3.0 8.0 0.00 0.00 0.00 56 978.7
20260509074547 32 282 3.0 8.0 0.00 0.00 0.00 56 978.7
20260509074043 33 284 3.0 8.0 0.00 0.00 0.00 56 978.7
20260509073542 33 279 3.0 8.0 0.00 0.00 0.00 56 978.7
20260509073043 33 295 4.0 8.0 0.00 0.00 0.00 56 978.7
20260509072544 33 277 3.0 4.0 0.00 0.00 0.00 56 978.6
20260509072042 33 275 3.0 4.0 0.00 0.00 0.00 56 978.5
20260509071541 33 287 2.0 4.0 0.00 0.00 0.00 56 978.5
20260509071038 34 290 2.0 5.0 0.00 0.00 0.00 56 978.4
20260509070538 34 306 2.0 5.0 0.00 0.00 0.00 56 978.4
20260509070041 34 296 3.0 5.0 0.00 0.00 0.00 56 978.4
20260509065539 34 303 1.0 3.0 0.00 0.00 0.00 56 978.4
20260509065037 34 295 1.0 3.0 0.00 0.00 0.00 56 978.4
20260509064538 34 295 2.0 4.0 0.00 0.00 0.00 56 978.3
20260509064037 34 296 2.0 4.0 0.00 0.00 0.00 56 978.3
20260509063535 34 323 1.0 3.0 0.00 0.00 0.00 55 978.2
20260509063033 34 323 1.0 3.0 0.00 0.00 0.00 54 978.1
20260509062531 35 323 2.0 3.0 0.00 0.00 0.00 54 978.1
20260509062030 35 323 1.0 4.0 0.00 0.00 0.00 54 978.1
20260509061528 35 313 2.0 4.0 0.00 0.00 0.00 53 978.1
20260509061031 36 327 1.0 5.0 0.00 0.00 0.00 53 978.0
20260509060526 36 325 2.0 6.0 0.00 0.00 0.00 53 977.9
20260509060033 37 309 2.0 5.0 0.00 0.00 0.00 52 977.9
20260509055529 37 16 1.0 3.0 0.00 0.00 0.00 51 977.8
20260509055027 37 16 1.0 3.0 0.00 0.00 0.00 50 977.7
20260509054521 38 16 0.0 4.0 0.00 0.00 0.00 49 977.5
20260509054020 38 16 0.0 4.0 0.00 0.00 0.00 49 977.7
20260509053519 38 33 0.0 0.0 0.00 0.00 0.00 49 977.5
20260509053018 39 33 0.0 2.0 0.00 0.00 0.00 49 977.4
20260509052516 39 33 0.0 2.0 0.00 0.00 0.00 48 977.4
20260509052014 40 33 0.0 1.0 0.00 0.00 0.00 47 977.3
20260509051513 41 33 0.0 2.0 0.00 0.00 0.00 46 977.3
20260509051012 41 33 0.0 2.0 0.00 0.00 0.00 45 977.3
20260509050511 42 33 1.0 2.0 0.00 0.00 0.00 44 977.3
20260509050026 42 33 0.0 2.0 0.00 0.00 0.00 43 977.2
20260509045509 43 33 0.0 4.0 0.00 0.00 0.00 43 977.1
20260509045008 43 34 1.0 4.0 0.00 0.00 0.00 43 977.2
20260509044509 43 34 1.0 6.0 0.00 0.00 0.00 42 977.2
20260509044007 43 45 3.0 6.0 0.00 0.00 0.00 43 977.1
20260509043507 43 18 2.0 6.0 0.00 0.00 0.00 42 977.1
20260509043009 43 26 3.0 6.0 0.00 0.00 0.00 42 977.1
20260509042508 43 34 2.0 5.0 0.00 0.00 0.00 43 977.0
20260509042011 43 11 1.0 6.0 0.00 0.00 0.00 43 977.0
20260509041508 43 48 2.0 10.0 0.00 0.00 0.00 42 976.9